Satellite-Ground Cal/Val Site Overpasses Predictions

Prediction of Satellite NPP Overpassing Cal/Val Site: Antarctic Dome C

Ground Cal/Val Site Location: Latitude: -75.10, Longitude: 123.35; Satellite-Ground Site NADIR distance within 100 km.

Table of predicted overpasses for the next 14.0 days since TLE Epoch: 6/1/2018
Interval Starting Time Ending Time Minimum Distance Time Minimum Distance (km)
1 06/03/2018 15:07:32 06/03/2018 15:07:39 06/03/2018 15:07:35 96.05
2 06/04/2018 14:48:31 06/04/2018 14:49:00 06/04/2018 14:48:46 15.17
3 06/06/2018 07:31:21 06/06/2018 07:31:50 06/06/2018 07:31:35 2.56
4 06/09/2018 14:54:47 06/09/2018 14:55:16 06/09/2018 14:55:01 21.30
5 06/10/2018 14:36:05 06/10/2018 14:36:20 06/10/2018 14:36:13 85.83
6 06/11/2018 07:37:38 06/11/2018 07:38:05 06/11/2018 07:37:52 33.94
7 06/12/2018 07:18:52 06/12/2018 07:19:11 06/12/2018 07:19:01 76.24
8 06/14/2018 15:01:06 06/14/2018 15:01:30 06/14/2018 15:01:18 58.01


NCC Satellite Cal/Val Overpasses Prediction Service
